STARLINK-31901, 59793

Orbit data source: Space-Track

STARLINK-31901, 59793 is a payload satellite owned by SpaceX/Seattle (US) in LEO that was launched on Sat, 18 May 2024 UTC via an FALCON 9 launch vehicle from the Air Force Eastern Test Range (AFETR). Payloads include a variety of satellites, spacecraft, and rockets equipped with specific instruments for various scientific and technological missions. These include communications satellites like Starlink; space stations such as the ISS; scientific satellites like the Hubble; Earth observation satellites from companies like Planet Labs, Umbra, and HawkEye 360; GPS; miniature CubeSats for education and research; and military/defense satellites.

Loading next visibility...
STARLINK-31901 details
Identifier
59793, 2024-093M
Orbit
LEO
Last TLE update9 hours ago
Origin
Flag of USSpaceX/Seattle (US)
ManufacturerSpaceX/Seattle
MissionPartially operational spacecraft
Bus & MotorSTARLINK V2M, Unknown motor
Mass730 kg wet, ~700 kg dry
Launch date (UTC)
2024-05-18 (8 months ago)
Launch vehicle
FALCON 9
Launch site
Air Force Eastern Test Range (AFETR)
Object type
Payload
Rocket body
Debris
Shape & HBRUnknown
Radar Cross SectionLarge (>1 m²)

Expand to show TLE details & history

TLE from 9 hours ago
0 STARLINK-31901
1 59793U 24093M   25014.91667824  .00099233  00000-0  11934-2 0  9992
2 59793  42.9997  41.4148 0001100 258.3776  14.0688 15.59802942  5958
Epoch: 2025-01-14T22:00Z
Definitive object data (Epoch: 2025-01-14T22:00:00.999Z)
Latitude-43.11109°
Longitude-129.86504°
Altitude400.809 km
Speed7.671 km/s
True Right ascension20h 59m 01s
True Declination-42° 55' 50"
Sunlit
Object was in daylight at TLE epoch
Visualization TLE readout
Latitude-42.28192°
Longitude-149.6053°
Altitude400.235 km
Speed7.671 km/s
Apparent Right ascension19h 44m 41s
Apparent Declination-40° 57' 23"
Sunlit
Object is in daylight
Visualization observer readout
Local Sidereal Time07:49:26
Azimuth139.393° SSE
Elevation-88.622°
Doppler factor1
Orbital elements
Apogee altitude390.944 km
Perigee altitude389.455 km
Semi-major axis6,768.336 km
Eccentricity0.00011
Inclination42.9997°
RAAN41.4148°
Arg. of periapsis258.3776°
True anomaly14.07186°
Mean anomaly14.0688°
Eccentric anomaly14.07033°
Mean motion3.89781 °/min
BSTAR0.0011934
Orbital period92.36 mins
Loading maneuver chart data...
Loading historical data...
Loading historical data...
Loading historical data...
Loading historical data...
Loading historical data...
Loading historical data...
Loading historical data...

STARLINK-31901 Visibility forecast

Observer location: undefined°, undefined

Span
Click to sort rows by Start time (UTC) header in descending order
Start Az.
Max El. time (UTC)
Max El. Az.
Max El.
End time (UTC)
End Az.
5 mins2025-01-15 07:55:56.805Z286.021° WNW2025-01-15 07:58:56.805Z6.35° NNE35.375°2025-01-15 08:00:56.805Z68.859° E
5 mins2025-01-15 09:33:56.805Z289.598° WNW2025-01-15 09:35:56.805Z73.174° E44.738°2025-01-15 09:38:56.805Z107.133° ESE
4 mins2025-01-16 05:21:56.805Z232.414° WSW2025-01-16 05:22:56.805Z204.586° SW40.097°2025-01-16 05:25:56.805Z76.388° E
4 mins2025-01-16 06:58:56.805Z295.555° NW2025-01-16 06:59:56.805Z333.942° NNW35.622°2025-01-16 07:02:56.805Z69.232° E
|